HORYU-4

Last updated on Tue Jul 01 2025 00:03:44 GMT+0000 (Coordinated Universal Time)

1 41340U 16012D 25180.79981106 .00014629 00000+0 38049-3 0 9997 2 41340 30.9977 355.8829 0006283 276.7709 83.2222 15.37601091515908
UTC large
Height (km)
Speed (km/s)
/
Latitude / Longitude
Inclination (degrees)
Orbital Period (minutes)
Azimuth
Elevation
Range (km)
Doppler Factor

Next 0 passes for location: London (51.5072 / 0.1276)

Sorry there are no passes over London.